Theta_e
341 341 342 343 343 343 343 342 342 342 341 340 339 339 339 340 340 341 340 340 340 339 339 338 337 336 339 340 339 338 338 337 337 337 337 337 336 336 335 336 332 328 327 326 325 323 322 320 319 319 320 323 324 327 330 332 331 329 332 335 335 335 336 336 336 336 336 335 335 335 334 333 330 329 329 331 332 333 336 338 339 338 338 338 338
341 341 343 343 342 342 342 342 343 342 342 341 340 339 339 339 340 339 339 339 338 338 338 337 337 335 337 338 338 338 338 337 337 336 337 337 336 336 335 335 328 322 323 321 320 320 321 320 318 317 317 318 321 322 324 328 331 330 332 335 334 335 336 336 336 337 337 336 335 336 337 337 336 334 332 332 331 328 329 333 336 337 338 338 338
341 342 342 343 342 342 342 343 343 342 342 341 340 339 339 339 339 339 339 339 339 338 337 336 335 334 334 335 336 337 338 337 336 336 336 336 336 335 335 332 325 320 321 318 314 312 314 316 316 316 315 314 318 322 321 322 329 331 332 334 334 335 336 336 336 337 337 337 336 336 335 336 337 335 334 333 332 330 328 329 330 332 334 336 337
342 341 342 343 342 342 342 342 343 343 342 340 339 338 338 338 339 339 339 339 339 338 337 336 334 333 332 334 334 335 337 336 335 335 335 335 335 335 334 332 326 323 324 320 315 310 311 312 312 314 315 312 312 320 322 320 325 331 331 332 334 335 335 336 336 336 337 336 336 335 334 335 336 335 334 331 330 331 330 330 329 328 328 329 332
342 341 341 342 341 342 342 342 343 342 342 340 338 338 338 338 338 339 338 339 339 338 337 335 333 332 332 333 332 332 335 336 334 334 335 335 335 334 334 331 326 325 325 321 316 310 310 310 309 310 311 311 311 317 323 321 321 328 332 332 334 334 335 335 335 335 336 336 335 334 333 334 334 334 333 331 330 330 330 331 331 331 329 328 328
342 341 341 341 341 342 343 342 342 342 342 340 339 338 338 338 339 339 339 340 339 338 338 336 332 332 333 331 330 330 332 334 334 334 334 334 335 335 333 329 325 325 325 321 317 310 309 308 305 305 306 306 309 314 320 323 320 325 331 332 333 334 334 334 334 335 335 335 334 333 333 333 333 332 332 331 330 330 330 331 332 332 331 331 330
341 340 341 342 341 342 343 342 342 342 342 340 339 338 338 338 338 339 339 339 339 338 337 335 331 333 334 330 330 330 329 332 334 333 334 334 334 334 331 327 324 326 325 321 316 311 309 306 302 301 302 302 304 306 312 319 318 322 330 331 332 333 333 334 334 334 333 333 333 333 332 333 333 330 329 329 329 329 329 331 332 332 331 331 330
341 340 341 341 342 342 343 342 342 342 342 340 339 339 338 338 338 338 338 339 339 338 337 333 330 333 334 331 330 329 328 330 333 333 334 334 333 332 329 326 326 327 325 321 316 312 310 304 300 300 300 301 301 301 302 308 314 322 329 331 332 331 332 333 333 333 332 332 331 332 332 333 332 331 328 326 328 328 328 330 331 331 332 331 329
341 340 341 341 342 342 343 343 342 342 342 341 339 339 338 338 338 338 338 338 338 337 336 332 330 333 334 331 330 328 328 329 332 333 334 333 332 331 328 326 328 329 326 323 318 313 310 304 299 300 300 301 301 301 300 303 314 324 329 330 331 331 331 332 332 331 331 330 330 331 331 332 331 330 327 325 326 328 329 330 332 332 332 331 329
341 340 341 341 342 343 343 343 343 342 342 341 340 339 338 338 338 338 338 338 338 337 336 332 330 333 334 333 331 328 326 329 333 333 333 333 331 330 327 327 330 329 327 325 321 314 310 304 299 300 301 301 301 301 302 308 318 325 328 330 330 330 330 331 331 330 330 330 329 330 331 332 331 329 328 325 325 328 330 330 332 332 329 329 328
341 341 341 342 342 343 343 343 343 342 342 341 340 340 339 338 338 337 337 338 338 337 335 333 331 333 334 333 332 330 327 330 333 333 333 332 331 329 327 329 330 329 328 325 322 316 310 304 299 300 301 301 302 303 308 316 322 326 328 329 329 329 329 330 330 330 330 329 329 329 330 331 331 329 328 327 323 324 328 328 329 329 327 327 326
342 341 342 343 342 342 343 342 342 342 342 342 341 340 339 338 338 337 337 337 337 336 335 334 333 334 335 333 333 332 330 331 333 333 333 332 331 330 328 330 330 329 328 326 323 318 311 305 300 300 301 301 302 306 313 320 323 325 327 327 327 328 328 329 329 329 329 328 328 327 328 330 331 329 328 327 324 320 320 319 321 322 322 320 320
343 343 343 343 342 342 342 342 341 341 341 341 341 340 339 338 338 337 337 337 336 336 335 334 333 334 335 334 333 333 332 332 332 332 333 332 332 331 330 331 330 329 328 327 324 319 313 307 301 299 300 301 303 308 314 319 323 324 323 323 324 325 326 327 327 328 328 327 326 325 327 330 330 329 328 326 324 321 316 310 309 312 315 314 316
344 344 344 343 342 342 341 342 340 340 341 341 341 340 340 339 338 337 337 336 336 336 335 334 333 333 334 334 333 333 334 333 332 333 332 332 332 332 331 331 330 329 328 327 324 320 314 308 302 299 300 301 303 308 314 319 321 322 322 322 322 323 325 326 326 327 327 327 325 325 327 330 330 329 328 326 324 323 317 310 307 310 316 316 316
344 344 344 343 343 342 341 341 340 340 340 341 340 340 340 339 338 338 337 336 336 336 335 333 332 332 333 333 333 333 334 333 333 333 333 332 333 332 331 331 331 330 328 327 325 320 315 311 305 300 300 300 301 306 313 319 321 322 323 324 323 324 324 325 326 326 327 327 326 325 327 329 329 329 327 326 325 321 316 313 314 317 319 319 320
343 343 343 342 342 341 340 340 341 340 339 340 339 340 339 339 339 338 337 335 335 335 335 333 332 332 332 333 333 333 333 333 333 333 333 333 333 333 332 331 330 330 328 326 325 321 316 312 307 302 299 300 301 302 307 313 317 319 321 322 322 323 323 323 324 325 326 326 325 326 328 328 328 327 326 325 324 318 316 319 321 321 320 321 322
341 341 340 340 339 340 340 339 340 340 339 339 339 339 339 339 339 338 337 336 335 334 334 334 333 332 332 333 333 332 332 332 333 333 333 333 333 333 332 332 330 330 328 326 324 320 317 314 309 304 300 300 300 300 302 304 307 309 310 312 315 319 321 320 321 324 324 324 325 325 326 327 326 326 324 324 323 320 320 322 323 322 321 322 323
339 338 338 337 335 339 342 339 340 340 339 338 338 339 339 338 339 338 337 337 336 334 334 334 333 333 332 333 333 332 331 331 332 332 332 332 332 332 332 331 330 330 327 325 324 321 319 316 312 307 302 299 299 300 300 300 301 301 302 303 306 309 310 309 312 320 319 318 323 325 325 326 325 325 325 323 323 322 323 323 323 323 322 322 323
338 337 337 336 334 338 341 339 340 339 338 338 337 338 338 338 339 338 338 337 336 335 333 333 333 333 332 332 332 332 332 331 331 332 331 331 332 332 332 331 330 330 327 326 324 322 321 318 316 312 307 302 299 299 299 300 300 300 300 300 301 301 301 300 303 308 306 310 321 324 324 325 325 325 325 324 323 323 323 323 323 323 322 322 322
337 337 336 336 335 335 336 337 338 338 337 337 337 337 338 338 338 338 338 337 337 335 334 332 332 332 332 332 332 332 332 332 332 332 331 332 332 332 332 332 331 329 327 326 325 323 323 321 319 318 315 310 305 302 299 299 299 299 300 299 299 299 299 299 299 299 298 303 314 320 322 322 323 324 324 324 324 323 323 322 322 323 323 322 322
331 333 335 336 335 334 334 336 337 336 336 336 336 336 336 337 337 337 338 338 337 336 334 332 331 331 332 332 331 331 332 332 332 332 332 332 333 332 332 332 331 330 328 326 325 324 324 322 321 320 319 317 314 311 307 302 299 299 299 299 299 299 298 298 298 298 298 298 302 309 315 315 318 321 321 322 323 323 322 322 322 323 323 323 322
323 327 330 333 335 334 334 334 335 335 336 336 335 336 336 337 336 336 337 337 337 336 335 333 332 331 331 331 332 331 331 332 332 332 332 332 333 332 332 332 330 329 328 326 325 325 324 324 323 321 319 318 317 316 315 309 303 300 300 299 299 299 299 298 298 297 297 297 297 300 307 313 316 317 318 319 321 322 323 322 322 323 324 323 322
318 320 323 327 331 332 333 332 333 334 336 336 336 337 337 338 338 337 336 336 337 336 336 335 333 333 332 332 332 331 332 334 334 333 332 332 333 332 332 331 330 329 328 326 325 325 325 325 324 322 320 318 317 316 316 312 307 304 304 303 300 299 299 299 299 298 297 296 297 297 303 314 318 317 317 317 317 320 322 323 323 322 323 323 322
316 317 318 320 324 328 331 331 332 333 336 337 337 337 336 337 338 337 336 335 336 336 336 336 335 335 334 334 334 333 333 335 335 334 333 332 332 332 331 331 329 329 328 326 325 325 325 325 324 323 320 318 317 315 315 313 310 309 308 307 305 302 300 300 300 300 299 297 297 296 299 309 317 318 318 318 317 318 320 322 323 322 322 323 323
316 316 316 317 318 322 326 329 331 333 335 336 337 337 336 337 337 336 336 335 335 335 336 336 336 335 335 335 334 334 334 335 335 334 333 332 331 331 330 330 329 328 328 326 325 325 326 325 324 322 320 318 317 316 315 314 312 311 310 309 308 306 304 303 304 303 302 301 299 298 296 301 309 314 316 316 317 317 318 320 321 320 320 321 321
315 315 315 315 315 316 320 324 328 332 335 336 337 336 336 337 336 336 337 335 335 335 335 335 335 335 335 335 334 334 334 334 334 334 333 332 331 330 331 331 329 328 328 327 326 326 326 325 324 321 320 319 320 319 317 315 314 312 311 310 309 308 307 307 306 305 304 304 302 301 299 298 300 305 310 313 313 314 315 316 317 317 318 318 318
314 315 315 315 315 315 316 318 323 328 334 336 335 335 335 336 337 339 339 337 336 335 335 335 335 335 334 335 334 334 334 334 334 334 333 333 332 331 331 331 329 328 329 329 327 328 326 323 323 321 320 321 321 320 319 317 315 314 313 312 311 309 309 308 307 306 305 305 304 303 302 301 299 300 306 310 311 311 312 312 313 314 315 316 316
314 314 314 314 315 317 316 315 318 323 332 335 334 334 335 336 337 339 338 337 337 335 335 335 335 335 335 333 333 334 334 334 333 333 333 333 332 331 331 331 330 329 328 329 328 328 325 323 322 322 321 321 320 320 319 318 316 315 314 313 312 310 308 307 306 306 305 304 304 303 303 303 302 302 305 310 312 311 311 311 311 312 313 314 315
313 313 312 312 315 317 317 317 316 319 329 333 333 334 334 335 337 338 337 336 336 336 335 335 335 335 334 333 333 334 334 334 333 333 333 332 332 330 331 331 331 330 329 329 328 327 325 323 323 322 321 320 320 320 319 319 317 316 315 313 312 311 308 306 306 305 304 304 303 302 302 302 302 303 304 308 311 311 311 311 312 313 313 314 314
311 311 311 312 315 316 317 318 315 319 328 332 332 334 334 335 336 336 335 335 335 335 335 334 333 333 333 333 334 334 333 333 333 332 332 331 331 330 331 330 330 330 329 329 328 326 325 324 323 322 321 320 319 319 319 318 317 315 315 313 312 310 307 306 305 304 303 302 302 301 301 302 301 301 302 304 307 309 308 308 310 312 313 314 315
311 312 312 313 316 318 318 318 318 322 328 331 332 333 334 334 335 335 334 334 334 333 333 332 331 332 332 333 333 333 333 332 332 332 331 331 331 330 331 330 329 329 329 328 326 326 325 324 323 322 321 320 319 318 318 317 315 314 314 313 311 309 307 306 305 303 302 302 302 301 301 301 301 301 301 301 302 304 304 304 307 311 312 313 314
311 313 313 313 317 320 320 321 323 325 329 331 332 332 333 333 332 333 332 333 333 332 331 330 330 330 329 329 330 330 331 330 331 331 330 330 330 330 330 329 329 327 327 327 326 326 325 324 323 322 321 321 319 318 317 316 314 313 313 312 310 308 306 305 303 302 302 302 302 302 300 300 299 300 300 300 300 301 301 302 304 308 311 311 312
312 313 314 314 318 321 322 325 326 327 329 330 331 331 332 332 331 331 330 330 331 330 329 329 328 327 326 327 328 328 328 328 328 328 329 329 329 329 328 327 326 326 326 326 326 326 325 325 323 322 321 321 320 318 316 315 314 313 312 310 308 306 305 304 302 302 302 302 302 300 297 296 296 296 295 295 296 296 297 298 300 305 309 309 310
312 313 315 316 318 321 323 325 327 328 329 329 330 331 330 330 330 329 329 329 329 329 328 328 327 325 325 327 327 328 327 327 328 328 328 328 327 327 326 325 325 325 325 325 325 325 324 324 323 322 321 320 320 317 316 315 313 312 309 307 305 304 304 302 301 301 301 301 299 296 293 292 292 291 291 291 291 292 292 293 295 300 304 306 307
313 314 316 317 318 321 323 324 326 327 328 329 329 329 329 329 329 328 327 327 327 327 327 326 326 325 325 326 327 327 327 327 327 327 327 326 326 325 324 324 324 324 324 324 324 324 323 323 322 321 321 320 319 316 316 314 311 308 306 305 304 304 303 301 300 299 298 296 293 291 290 290 290 290 290 290 290 290 290 290 291 293 296 300 304
314 315 317 318 318 320 323 324 326 326 327 328 328 328 328 327 327 327 326 327 326 325 325 324 324 323 324 325 326 326 326 325 326 326 325 324 324 323 323 322 322 323 322 322 322 322 322 321 320 320 321 319 317 316 315 312 308 306 305 304 303 302 300 298 296 294 292 291 290 290 290 290 290 290 289 289 289 290 290 290 290 290 291 293 297
315 316 317 318 319 320 322 323 324 325 325 326 326 326 326 326 326 325 325 324 323 323 322 321 322 321 322 323 324 324 325 324 324 324 324 323 322 320 320 320 321 321 320 320 320 319 319 319 318 318 319 318 316 314 312 308 306 305 304 302 301 298 295 293 292 290 290 290 290 289 289 289 289 289 289 289 289 289 289 289 289 290 289 290 292
315 317 317 318 320 320 321 322 322 323 324 324 324 324 324 324 322 321 322 322 321 320 319 319 320 320 321 321 322 323 323 323 323 323 323 322 320 318 318 318 319 319 319 318 317 316 317 318 318 316 315 315 314 311 308 305 304 303 302 301 299 295 292 292 292 292 291 290 290 290 289 289 289 289 289 289 289 289 289 289 289 289 289 289 289
315 316 318 318 320 320 320 321 321 321 322 321 320 322 323 321 319 318 319 319 319 318 317 318 319 319 320 320 321 321 321 321 321 320 320 320 318 318 317 317 317 317 317 315 312 312 313 313 313 311 311 312 310 308 306 304 303 302 301 300 299 296 294 295 295 294 292 291 290 289 289 289 288 288 289 289 289 289 289 289 289 288 288 288 288
315 316 317 317 318 319 318 319 319 319 319 317 317 319 318 316 315 316 317 317 317 316 315 316 317 317 318 318 318 318 318 319 318 318 318 318 317 317 316 315 315 315 313 309 305 305 305 304 305 305 307 309 307 305 305 304 303 301 300 299 298 297 296 296 295 294 292 291 290 289 289 289 288 288 288 288 288 288 288 289 288 288 288 288 288
314 316 317 316 318 319 318 317 316 317 318 317 316 317 315 313 313 313 314 313 312 313 312 312 313 314 315 315 316 316 316 317 316 316 317 317 316 315 314 312 311 311 307 302 298 297 297 298 302 304 307 307 305 303 303 304 302 299 298 297 297 297 297 296 294 293 292 291 291 290 288 288 288 287 287 288 288 288 288 288 288 288 288 287 287
312 315 316 316 316 317 318 317 315 314 318 318 317 317 316 315 314 313 313 310 308 309 309 309 310 312 312 313 314 314 315 315 314 315 315 315 314 313 312 310 309 306 301 296 294 294 294 296 300 303 305 305 302 301 302 302 301 298 296 295 295 295 294 294 292 291 291 291 291 290 288 287 287 287 287 287 288 288 288 288 288 289 289 288 287
312 313 315 315 314 314 315 316 314 312 315 317 317 317 316 316 315 314 313 309 306 307 307 308 309 310 310 310 311 312 312 312 312 313 313 313 312 311 310 309 307 303 297 293 293 293 293 294 296 300 303 302 301 301 302 302 300 298 297 297 296 294 293 292 290 289 289 290 290 290 287 287 287 287 287 287 287 288 287 288 288 288 289 289 289
310 311 314 313 311 311 312 313 312 309 310 314 316 317 315 314 314 312 311 309 307 305 306 307 308 309 309 308 309 309 310 310 310 310 310 310 309 309 308 307 305 300 296 293 292 292 292 293 293 296 299 299 297 297 300 301 300 299 299 297 296 296 294 292 290 289 289 288 289 289 287 286 287 287 287 287 287 287 287 287 288 288 288 289 289
309 310 311 310 309 311 312 312 311 307 308 312 314 315 313 311 309 307 306 306 304 303 304 304 305 307 307 306 307 307 307 307 307 306 306 305 306 306 305 304 300 296 294 293 292 292 292 292 292 293 294 293 292 291 294 296 296 296 296 293 293 295 294 291 290 289 288 288 288 288 287 286 286 286 287 287 287 287 287 287 287 288 288 288 289
309 310 310 308 308 311 311 312 311 308 308 311 312 313 313 311 308 305 303 302 300 300 304 304 303 305 305 304 303 303 303 302 301 301 300 301 302 303 301 298 294 292 292 292 291 291 291 291 291 291 291 291 291 290 290 290 290 290 291 290 290 291 291 290 290 290 289 288 287 287 286 286 286 286 286 287 287 287 287 286 287 287 288 288 288
309 309 309 308 308 310 310 311 312 309 308 310 310 312 313 311 310 309 306 304 301 298 301 304 303 302 301 300 299 298 298 297 296 296 296 296 297 297 295 292 292 291 291 291 290 290 290 289 290 290 290 290 291 290 289 289 289 289 289 289 289 289 288 289 289 289 289 288 287 287 286 286 286 286 286 286 286 286 286 286 287 287 288 288 289
309 309 308 308 308 309 310 311 311 309 308 308 309 311 312 311 310 309 306 305 304 299 297 300 300 299 298 296 295 294 293 293 293 292 292 292 292 292 291 291 291 291 290 290 290 289 289 289 289 289 289 289 290 289 288 288 288 288 288 288 288 288 288 287 286 286 287 289 289 287 286 285 286 286 286 286 286 286 286 286 286 287 288 288 288
308 308 308 307 307 307 309 310 309 308 307 307 308 310 311 311 309 307 304 302 302 298 295 296 296 296 295 293 292 291 291 291 291 291 291 291 291 291 291 291 290 290 290 290 289 289 289 289 289 289 289 289 289 289 288 288 288 287 287 287 287 287 287 286 285 285 286 289 289 287 285 285 285 285 285 285 285 285 285 286 287 287 286 286 286
306 307 307 307 306 306 306 307 306 306 306 305 307 308 309 309 308 307 304 298 296 294 292 293 293 293 292 290 290 290 290 290 290 290 291 291 291 290 290 290 290 290 289 289 288 288 288 288 288 289 289 289 288 289 288 287 287 287 287 287 287 286 286 285 285 285 285 286 287 286 285 284 284 284 284 284 285 285 285 286 286 285 285 285 285
305 305 306 306 306 305 305 305 305 305 305 304 305 306 307 308 307 306 303 297 294 292 290 290 291 291 290 289 289 289 289 290 290 290 290 290 290 290 290 290 289 289 289 288 288 288 288 288 288 288 288 288 288 288 288 287 287 287 287 286 286 286 286 285 284 284 284 284 286 285 284 283 283 283 284 284 284 284 285 286 285 284 284 285 285
Wind_Speed
13 12 10 10 8 10 12 12 13 13 14 14 15 15 16 17 17 16 16 15 15 16 16 16 15 15 16 16 17 17 17 16 18 17 17 18 19 20 20 20 20 21 19 18 17 16 16 15 15 13 13 13 13 14 15 16 17 17 18 19 19 19 18 17 18 18 18 18 17 18 18 18 18 18 18 18 18 18 18 19 18 18 17 15 16
14 13 12 11 9 10 11 11 13 12 13 14 15 15 15 16 15 15 15 15 15 15 15 15 15 14 15 15 16 16 16 16 16 16 17 18 19 19 19 19 21 22 20 19 17 15 14 13 13 12 11 10 10 11 13 15 16 17 17 18 18 19 17 16 17 18 17 16 16 17 17 17 17 18 18 18 18 17 17 18 18 19 18 15 15
14 14 13 12 10 10 10 11 12 12 13 14 14 14 15 15 15 15 15 15 15 15 15 14 14 14 14 15 15 16 16 15 15 15 16 17 18 18 18 19 21 23 23 23 20 17 14 12 10 10 9 9 9 9 11 13 15 16 16 16 16 18 16 16 17 17 16 15 15 16 16 17 17 17 18 18 18 18 17 17 16 17 17 15 15
15 16 14 13 11 10 11 11 11 11 12 13 14 14 14 14 14 15 15 14 14 14 14 14 13 13 15 15 16 16 15 15 15 14 15 15 17 18 18 19 22 24 25 25 23 20 17 14 11 9 8 8 7 8 9 11 13 14 15 14 15 16 15 15 16 16 15 14 14 15 16 17 17 17 18 19 19 18 18 17 16 15 14 14 14
16 17 15 14 12 11 11 11 11 11 12 13 13 13 13 13 14 14 14 14 13 14 13 13 12 13 14 14 15 15 15 15 14 14 15 15 16 17 18 19 22 24 25 25 23 21 18 15 13 10 8 8 7 7 8 9 12 13 14 14 13 14 14 14 15 15 15 14 14 15 16 17 18 17 18 19 19 18 18 17 17 16 16 15 14
16 18 16 15 13 12 11 11 11 11 12 12 13 13 13 13 14 14 14 13 13 13 13 12 12 13 13 13 14 15 15 14 14 13 14 15 16 16 18 20 21 23 24 24 23 21 18 16 14 12 10 9 8 8 8 8 10 12 14 14 13 13 13 14 15 15 15 14 14 15 16 17 18 18 17 17 18 18 17 16 16 16 16 15 15
14 17 16 15 14 13 11 11 11 11 12 12 12 12 12 13 13 14 13 13 13 13 13 12 12 14 13 14 14 14 14 14 14 13 13 14 15 15 16 18 20 22 23 23 22 21 19 16 14 13 11 10 10 9 9 8 9 12 13 14 15 14 15 16 16 16 15 15 15 15 16 16 18 18 16 16 17 16 15 15 14 14 14 15 15
13 16 16 14 13 12 11 11 11 10 11 12 11 11 11 12 12 13 13 12 12 13 12 12 13 13 13 14 14 13 14 14 14 12 13 14 13 14 15 17 19 21 23 23 22 21 19 16 14 13 13 12 11 11 10 10 11 13 13 15 16 16 16 17 16 16 16 16 16 16 17 17 18 18 16 15 16 15 14 14 13 13 13 14 15
13 16 16 14 12 12 11 11 11 10 11 11 11 11 11 11 11 12 12 12 11 12 11 11 12 13 13 13 13 13 13 13 13 12 13 12 12 13 15 17 19 21 23 23 22 21 19 16 15 14 14 13 12 12 11 12 14 14 14 15 15 15 16 16 15 14 16 16 17 17 18 17 18 18 16 15 15 14 14 15 14 14 13 14 14
12 16 16 13 12 12 11 11 11 11 11 11 11 11 11 11 11 11 11 11 11 11 11 11 12 12 13 12 12 12 12 13 12 11 12 11 11 12 14 16 19 21 22 23 22 21 19 16 15 15 15 15 14 13 13 14 15 15 15 14 14 14 15 15 14 14 15 16 16 17 17 16 17 17 16 15 14 13 14 15 15 15 14 14 13
13 16 15 12 12 11 11 11 11 11 11 11 11 11 11 11 11 11 11 11 11 11 11 11 11 11 12 12 11 11 12 13 12 11 12 10 10 11 13 16 18 20 22 22 22 21 20 17 15 15 16 16 16 15 15 16 15 15 14 13 12 12 13 13 13 13 14 14 15 15 16 15 16 16 15 15 13 11 11 12 13 13 13 12 12
15 17 16 12 12 12 11 11 11 11 11 11 12 12 11 11 11 11 12 11 11 11 11 11 11 11 11 11 11 11 12 12 11 11 11 10 10 11 13 15 17 19 20 21 21 21 20 18 16 15 16 16 17 16 16 15 14 13 12 10 9 9 9 10 11 13 13 13 13 14 14 15 15 14 14 13 13 12 11 10 10 11 10 11 11
18 17 16 14 13 12 11 11 12 11 11 12 12 11 11 11 12 12 12 11 11 11 11 11 11 10 10 10 10 10 11 11 10 10 10 9 10 10 12 14 16 17 19 20 20 20 20 19 16 15 15 16 16 16 15 14 13 12 10 9 8 7 7 8 10 11 12 12 12 12 13 15 14 12 13 12 12 13 13 12 11 10 11 11 11
19 18 17 15 14 13 11 11 11 11 11 12 12 11 11 11 11 12 12 11 11 11 11 11 11 10 9 9 9 9 9 10 10 9 9 9 10 9 11 13 14 16 17 19 19 19 19 19 17 15 15 15 15 15 15 14 13 12 11 10 9 8 7 8 10 10 11 12 12 12 13 14 13 13 13 12 13 14 15 14 13 13 13 12 13
20 19 17 15 14 13 11 11 12 12 12 12 13 12 11 11 11 12 12 12 11 11 11 11 10 9 9 9 8 8 8 9 9 9 9 9 9 8 9 11 12 14 15 17 17 18 18 18 17 15 15 15 15 14 14 13 12 12 11 10 9 8 7 7 9 10 11 11 12 12 14 14 14 14 13 13 13 14 14 14 14 14 14 13 14
19 19 17 15 13 11 10 11 13 13 13 13 13 12 11 11 12 12 12 12 12 12 12 11 9 8 8 8 8 7 8 8 9 9 9 9 8 8 8 9 11 12 14 15 16 17 18 19 18 16 15 15 15 14 13 12 11 10 9 9 8 7 6 6 7 8 9 10 10 12 14 15 14 13 13 14 14 13 14 14 15 14 14 14 14
17 17 16 15 13 12 11 12 13 13 12 12 12 12 12 12 12 12 13 13 12 12 12 11 9 8 8 8 8 7 8 8 8 9 9 8 7 7 7 8 10 11 12 14 16 18 19 19 19 18 16 15 15 15 14 13 11 10 10 9 8 8 7 7 7 8 9 9 9 11 14 14 14 14 14 14 14 14 14 15 15 14 14 14 14
14 14 14 13 12 13 13 12 12 11 9 9 10 12 12 12 12 12 13 13 12 12 11 10 9 8 8 7 7 7 7 7 8 8 8 7 7 7 7 7 8 9 11 13 16 18 19 19 20 18 16 15 15 15 14 13 13 12 12 11 11 10 9 9 9 9 8 9 9 11 14 14 14 14 15 15 15 15 15 15 15 15 15 14 14
13 13 12 11 11 13 14 12 12 11 9 9 8 10 10 10 10 11 12 12 12 11 11 10 9 8 7 7 7 7 7 7 7 7 7 7 7 7 7 6 7 8 10 13 15 17 18 18 19 18 17 15 14 14 14 13 13 13 13 13 12 11 12 12 12 11 9 9 8 10 13 14 14 14 14 15 15 15 14 14 14 15 15 14 14
14 14 13 12 12 14 14 13 13 12 11 11 9 9 9 8 8 9 10 11 11 11 10 9 8 8 7 7 6 6 6 6 7 6 6 6 6 6 6 6 6 7 10 12 14 15 16 17 18 18 17 16 15 14 13 13 13 13 13 13 13 13 14 14 14 13 13 11 8 8 9 11 13 14 13 14 14 14 14 14 13 13 14 14 13
14 14 14 13 13 14 14 13 12 11 11 11 11 10 9 9 8 8 9 10 10 11 10 9 8 8 7 7 6 6 6 6 6 6 6 7 6 6 5 5 5 7 9 11 13 13 14 16 17 17 17 16 16 15 14 13 12 13 13 13 13 14 15 15 15 14 14 13 10 10 9 10 13 13 13 13 13 13 13 14 13 13 12 12 12
13 13 13 14 14 14 14 14 14 12 10 10 11 11 10 8 8 9 10 10 11 11 11 9 8 8 7 7 6 6 6 6 6 7 7 7 7 6 5 5 5 6 8 10 12 12 13 15 16 15 15 16 16 15 15 14 13 13 13 13 13 14 15 14 15 15 15 14 12 11 12 14 15 13 13 12 12 12 12 13 13 12 11 10 9
10 10 11 12 13 14 14 15 15 14 12 10 10 10 10 8 7 9 10 11 11 12 12 10 9 8 7 7 7 6 7 7 7 7 7 8 7 6 6 5 5 7 8 10 11 12 12 14 15 14 14 14 15 15 15 15 14 14 14 14 14 14 14 14 14 14 14 14 14 12 12 16 17 15 14 14 13 12 12 12 12 11 11 10 8
8 8 9 10 12 13 14 15 15 15 13 11 9 10 10 9 7 7 10 12 12 11 12 11 10 8 7 7 7 6 7 7 8 8 8 9 9 7 6 6 6 7 8 9 10 10 10 11 13 13 13 14 15 16 15 15 15 15 16 15 16 15 14 15 14 14 14 14 14 13 12 15 18 18 17 16 16 15 13 13 14 11 11 12 11
7 7 8 10 10 11 14 15 16 17 15 13 11 11 12 11 8 7 9 12 12 12 12 11 10 8 7 6 7 7 7 7 9 9 8 9 9 7 6 5 5 9 10 8 9 9 7 8 11 11 12 13 15 16 16 16 16 16 17 16 17 16 16 16 15 15 14 14 14 13 12 13 15 17 18 18 17 17 16 16 16 15 13 13 14
7 7 8 9 9 11 13 14 16 18 18 15 13 13 14 13 10 9 10 12 13 12 11 11 11 9 8 7 7 7 7 7 9 9 8 8 9 7 7 6 6 10 11 9 9 7 5 7 10 10 11 12 14 15 16 16 16 16 17 17 17 17 17 16 16 16 16 15 15 14 13 12 12 14 17 18 17 17 18 17 17 17 17 15 15
8 8 8 8 8 10 12 14 16 18 19 17 14 12 13 14 13 13 14 14 14 13 12 11 10 10 9 8 8 8 7 8 9 9 7 8 10 10 8 7 8 11 10 9 9 8 7 9 10 10 10 11 13 14 14 14 15 15 16 18 18 17 17 16 16 16 17 17 17 16 15 14 14 14 17 18 18 17 17 18 18 18 18 17 17
8 8 8 7 7 9 10 13 15 17 20 19 14 12 12 14 15 16 16 16 15 15 14 11 10 12 10 9 9 9 10 10 11 10 9 9 10 10 9 9 10 10 8 7 9 9 11 11 11 9 9 10 12 13 13 14 14 13 15 17 17 16 16 16 16 16 17 17 18 18 16 16 16 16 17 19 19 19 18 18 18 18 18 18 18
8 8 6 6 8 8 8 10 13 16 20 20 14 12 13 14 16 17 17 17 15 15 15 13 12 12 10 8 9 10 11 12 12 11 11 12 11 9 9 10 11 11 9 7 8 10 12 11 10 9 9 10 12 12 12 14 14 13 14 16 16 16 15 15 16 16 16 17 17 17 17 16 16 16 17 18 20 20 19 19 19 18 19 18 18
8 7 6 7 8 8 8 9 12 16 19 19 14 14 15 16 19 18 17 18 17 16 15 13 10 8 8 10 10 11 12 12 12 10 11 13 12 10 10 10 10 11 10 9 9 11 11 10 10 9 9 10 12 12 12 14 15 14 14 15 16 15 15 15 16 16 17 17 17 17 17 17 16 16 16 17 18 19 19 18 19 19 19 19 18
9 8 7 7 9 8 8 10 12 16 19 18 16 18 18 19 22 21 19 18 17 16 12 9 9 9 10 12 12 12 13 13 12 12 12 13 13 12 12 12 11 11 12 12 13 13 12 11 10 10 9 9 12 12 12 14 16 15 14 15 15 14 14 15 16 16 17 17 16 16 16 17 16 16 16 16 16 17 17 17 19 20 20 20 19
11 11 9 9 12 11 11 13 15 16 19 20 20 21 21 21 22 21 21 19 16 14 11 10 11 12 11 11 11 11 12 12 12 13 13 14 14 14 14 14 15 15 15 15 15 14 13 12 11 11 9 9 11 12 14 16 17 15 14 13 13 13 14 15 16 17 17 17 16 16 17 17 17 17 17 16 16 16 16 16 17 20 21 20 20
13 12 11 11 13 13 14 16 17 18 20 22 22 22 21 20 20 19 18 18 16 14 13 13 11 11 12 12 12 11 10 10 11 11 13 15 15 15 16 16 17 18 17 16 16 14 13 12 11 11 11 11 12 13 14 16 16 15 14 14 14 15 15 15 16 17 17 17 17 17 18 19 19 19 19 19 19 18 17 17 16 18 22 22 21
14 13 13 13 14 15 16 18 19 20 22 23 22 22 22 20 19 17 16 15 14 13 12 12 10 11 13 14 13 12 11 11 11 12 15 17 17 17 16 16 16 16 16 15 15 14 13 12 11 10 11 11 12 13 14 15 16 16 16 15 16 16 15 16 17 17 18 18 18 19 20 21 21 21 22 22 22 21 20 20 18 17 20 23 23
15 15 14 15 15 16 18 19 20 21 23 23 22 22 22 21 19 17 16 14 13 13 13 13 13 15 15 15 15 14 15 15 14 15 17 18 18 18 17 16 16 15 15 14 14 14 12 11 10 9 11 12 13 15 14 16 18 19 18 17 17 16 16 17 17 18 18 19 20 21 22 22 22 23 23 23 23 23 22 22 21 19 19 22 23
16 16 16 16 17 17 19 20 20 23 25 24 22 22 23 22 21 19 15 14 15 15 15 15 16 16 16 16 16 16 16 17 16 16 18 19 19 19 18 17 16 15 15 14 13 11 10 11 11 10 11 12 13 14 15 17 20 20 19 18 18 17 18 19 19 20 20 20 22 22 23 23 23 22 22 23 23 22 21 21 21 20 19 20 22
16 17 18 18 18 18 20 21 20 22 26 26 25 24 23 22 22 21 17 16 16 15 16 17 16 16 16 17 17 17 17 16 17 17 18 19 19 19 19 18 16 14 14 13 12 11 12 12 12 11 11 12 13 15 18 21 22 21 20 19 19 20 21 22 21 21 21 21 22 21 22 23 22 22 22 22 21 21 21 20 20 19 19 19 20
16 17 18 18 19 20 21 23 23 23 24 26 26 24 23 22 22 22 21 19 17 16 17 18 17 17 17 18 18 18 18 17 17 17 18 18 19 19 19 17 15 15 15 15 14 14 13 11 10 10 11 13 16 19 22 23 23 23 22 21 20 21 22 21 20 20 20 20 20 20 20 21 22 21 21 20 20 20 19 19 19 19 19 20 19
17 17 19 19 19 22 22 23 24 25 24 25 26 24 23 24 24 23 22 19 18 18 19 19 19 19 18 19 19 19 20 18 17 17 18 19 19 19 19 18 16 16 17 16 15 14 12 11 11 12 14 16 19 22 24 24 24 24 24 22 20 20 19 18 18 18 18 19 19 19 19 19 20 20 20 19 18 18 18 18 19 19 19 20 20
20 19 21 21 20 23 24 24 26 25 26 26 27 26 26 26 25 24 22 20 20 21 21 21 21 20 20 20 20 20 19 18 18 18 19 20 21 21 21 20 18 17 17 18 17 15 14 14 14 16 18 21 24 25 24 24 26 26 24 22 19 17 16 16 16 17 17 17 17 18 18 17 18 19 19 18 17 16 16 16 17 18 19 19 19
21 21 22 24 24 24 24 26 27 27 28 28 28 28 28 27 25 24 23 23 23 24 24 23 23 22 21 21 20 20 19 19 19 19 20 22 23 23 22 21 19 18 19 20 21 20 19 18 19 20 21 25 26 25 25 25 26 25 22 21 19 17 14 14 15 15 15 14 14 15 17 17 16 17 18 17 16 15 14 14 14 16 18 19 20
23 23 23 24 25 25 25 26 28 29 29 29 28 28 27 26 24 23 24 26 26 26 25 24 23 23 22 21 21 20 19 20 20 20 21 21 23 23 23 22 20 20 22 23 22 21 21 20 20 22 23 25 25 23 23 19 18 20 19 17 15 15 13 13 13 13 12 12 11 13 16 17 16 16 16 17 16 14 13 13 13 14 15 17 19
24 24 24 24 26 27 26 28 29 29 29 29 27 25 25 23 22 24 27 28 26 26 26 24 23 23 22 21 21 20 20 20 20 20 20 21 22 23 22 22 20 21 24 24 22 21 21 20 21 23 24 24 21 17 15 13 16 19 16 10 5 6 8 9 10 10 10 10 10 12 15 17 16 15 15 16 16 14 13 12 11 13 14 15 16
25 25 26 25 26 27 27 29 28 27 28 28 27 27 26 25 25 27 28 27 26 25 26 24 23 22 22 21 20 20 19 19 20 20 21 22 22 23 23 23 22 22 23 24 23 22 21 20 20 21 23 24 22 17 12 13 17 14 7 4 2 3 2 2 4 5 8 10 10 10 14 16 15 15 15 15 15 13 12 11 10 11 13 14 15
26 27 28 27 27 28 28 29 28 27 27 28 29 30 30 29 30 29 26 25 25 25 26 25 23 23 22 22 21 20 19 20 21 22 23 23 23 24 24 24 24 23 23 24 24 23 22 20 19 19 21 23 24 22 18 14 12 8 5 5 3 2 2 3 2 2 3 7 9 9 12 15 15 14 14 15 14 12 11 11 9 10 12 13 15
28 29 29 28 28 29 29 28 27 27 27 28 30 31 31 31 31 29 27 27 26 24 25 26 25 25 24 23 23 22 22 23 24 24 25 25 25 25 25 25 25 24 24 24 25 24 23 22 20 20 20 20 21 23 21 17 14 13 11 10 6 5 3 1 1 1 2 2 6 9 11 14 14 13 13 14 13 12 11 11 10 10 11 12 13
30 30 29 28 29 30 29 27 26 26 27 28 29 30 30 29 27 26 26 28 26 24 25 27 27 27 27 26 26 26 26 27 27 27 26 26 27 26 26 26 25 25 24 24 25 24 23 23 21 21 20 17 17 21 20 16 15 14 12 11 10 9 6 3 3 1 2 2 6 10 11 13 13 12 13 13 12 11 11 10 10 11 11 11 12
32 31 30 30 30 30 29 28 27 27 27 27 28 27 26 26 26 26 27 28 27 26 28 29 29 30 30 30 30 30 29 28 28 28 27 27 27 27 26 25 25 25 24 24 24 23 23 22 20 20 20 18 17 19 18 14 14 13 10 8 8 7 5 5 5 3 2 2 6 7 10 13 12 11 12 12 11 10 10 9 9 11 12 11 11
31 31 31 30 30 29 29 29 29 28 27 27 27 25 24 26 27 28 28 28 29 30 31 32 32 33 33 33 32 32 31 30 29 28 27 27 26 26 25 25 25 24 23 23 23 22 21 21 19 19 19 19 18 17 17 15 13 12 9 7 6 5 4 4 5 4 3 1 2 4 9 13 11 10 10 9 9 9 8 7 7 10 11 12 12
30 30 30 30 29 29 29 29 29 29 28 27 27 27 26 28 29 30 30 31 33 33 33 34 35 35 35 35 34 33 32 30 29 28 27 26 25 25 24 24 24 23 23 23 22 21 20 20 19 18 18 19 17 16 16 14 12 11 8 7 6 4 3 2 2 3 2 2 1 5 7 10 10 10 10 9 8 8 6 4 6 9 11 12 11
29 29 30 30 30 29 29 29 29 29 29 28 28 28 28 29 29 30 33 35 37 37 37 37 37 37 37 36 34 33 32 31 30 28 27 26 25 24 23 23 23 22 22 22 21 20 19 19 18 18 17 17 16 15 14 13 10 9 8 7 6 5 4 3 1 1 0 1 1 5 8 9 10 10 11 10 7 7 4 3 6 9 10 9 9
Wind_Direction
171 168 155 147 138 125 117 112 107 104 100 95 94 94 95 95 96 98 95 94 93 91 87 85 83 84 84 81 79 79 77 76 79 79 80 83 81 76 71 65 59 58 57 54 51 50 48 46 45 47 50 51 54 57 65 76 80 81 81 76 71 65 60 62 64 63 63 63 65 66 63 61 60 58 59 58 58 59 61 61 62 64 62 58 55
169 167 158 147 142 129 122 115 110 108 103 100 97 96 99 98 100 99 97 96 94 91 88 85 82 82 84 85 82 78 78 75 74 74 76 79 79 75 71 66 57 54 53 51 48 47 47 46 45 46 50 54 57 57 60 72 81 83 83 78 72 65 62 63 64 62 61 62 65 68 64 61 60 56 56 58 57 55 57 57 58 59 59 58 57
170 167 159 149 144 136 129 121 115 113 108 103 100 100 100 99 99 98 96 94 94 93 89 86 82 82 83 84 83 79 78 76 74 72 73 74 76 74 71 65 55 51 49 47 45 45 45 46 49 51 55 59 67 70 66 71 80 85 85 81 74 67 66 67 66 64 61 62 63 64 60 57 56 55 55 55 55 52 52 53 53 56 56 56 58
173 167 161 154 148 141 135 130 123 117 113 107 105 104 102 101 99 98 96 93 94 93 89 86 84 84 84 84 84 83 79 76 75 73 72 71 73 74 71 61 52 49 46 44 43 42 43 45 49 53 60 65 74 86 83 80 82 87 88 84 77 70 70 71 68 67 63 62 61 59 57 57 55 52 53 52 54 53 49 47 47 50 50 51 55
171 168 164 159 153 148 142 138 132 124 120 115 111 108 106 105 104 102 100 100 98 96 94 90 88 87 87 87 87 87 83 78 77 73 73 74 72 72 68 58 51 48 45 44 41 41 44 45 47 52 59 65 73 88 95 91 89 92 93 88 79 73 75 74 71 69 66 64 60 58 57 60 58 52 52 51 53 53 49 46 45 47 47 47 50
169 169 166 162 159 152 146 143 139 132 126 119 115 112 111 111 111 110 108 107 103 100 98 93 90 90 88 87 88 89 88 85 81 78 77 77 73 70 63 55 51 47 44 43 41 41 45 48 49 52 56 61 67 77 93 97 93 97 96 86 77 76 80 78 75 72 69 67 61 60 60 60 59 54 51 51 52 53 51 48 46 47 48 48 47
169 171 168 163 161 154 149 148 142 136 129 123 120 116 114 116 116 115 113 109 104 102 98 95 94 93 88 85 85 87 90 91 87 83 79 76 74 71 61 55 51 47 46 45 42 41 45 51 52 54 57 58 63 70 84 96 97 99 96 85 78 79 83 82 78 74 72 69 63 60 60 60 60 55 51 52 51 52 53 50 48 46 45 46 46
169 173 170 164 161 153 153 152 147 143 135 129 124 119 116 117 117 116 115 111 105 103 98 98 99 94 87 83 82 84 89 93 91 86 81 77 75 71 62 57 53 50 49 47 44 43 44 51 55 57 59 60 63 69 81 96 102 102 96 87 84 82 84 85 82 78 74 71 66 62 59 61 61 56 49 49 52 53 51 47 47 46 43 44 46
168 175 170 168 163 153 155 155 150 147 141 136 130 123 119 117 117 117 118 116 110 107 104 102 104 99 89 83 81 84 92 96 93 88 85 82 76 71 65 60 56 54 51 48 46 45 46 52 56 59 61 62 63 68 81 98 105 103 96 91 88 82 82 85 83 78 74 70 67 63 60 61 60 56 47 46 58 62 56 49 48 47 45 45 45
164 174 170 168 166 156 155 155 150 149 147 142 136 128 123 121 121 119 121 120 116 114 111 109 110 106 99 94 87 86 97 101 98 94 92 87 80 72 67 63 59 56 52 49 48 47 48 53 58 60 62 64 65 67 83 101 106 104 98 94 91 82 80 82 82 77 72 69 67 64 62 61 58 55 50 51 60 66 62 55 51 48 42 39 34
155 167 168 166 169 163 158 157 153 152 153 150 143 137 131 129 129 127 126 125 125 123 119 118 118 114 108 103 96 91 98 103 103 100 96 90 82 75 70 65 60 56 53 49 49 50 51 55 59 61 63 66 69 74 89 102 104 104 101 98 95 86 81 81 82 79 75 71 69 66 62 58 56 54 50 51 53 55 59 54 48 44 37 30 21
156 162 163 162 168 168 163 159 158 156 154 156 151 145 142 139 139 136 133 134 134 133 130 130 126 120 115 110 104 98 100 104 107 104 100 92 84 80 75 68 61 56 52 49 49 52 53 57 61 62 66 69 74 83 94 102 102 102 103 103 101 93 86 82 81 80 77 73 71 69 66 59 54 48 45 47 46 45 45 40 38 36 31 29 23
161 162 161 160 164 170 171 162 162 160 157 161 159 151 147 147 146 143 139 140 141 142 141 140 136 130 125 118 110 104 105 107 108 107 105 96 90 85 79 71 63 58 52 49 50 53 56 60 64 65 67 70 77 87 95 99 100 100 100 102 101 99 96 86 80 78 74 72 71 70 69 65 56 48 46 44 37 32 30 30 34 36 35 34 34
165 164 163 163 163 168 174 170 165 161 163 165 163 159 153 152 152 150 145 144 147 150 150 148 145 138 132 123 114 110 109 110 110 109 109 103 96 90 82 74 64 61 55 50 52 55 59 63 68 69 69 72 78 87 94 96 97 98 97 96 95 96 98 90 80 76 72 69 70 69 66 62 57 52 47 40 31 23 21 27 38 44 45 43 44
163 162 162 164 164 168 176 178 171 165 168 167 166 165 160 158 158 158 153 149 151 155 157 156 149 142 136 126 120 118 114 114 115 116 116 110 105 98 88 79 68 63 57 51 54 58 61 64 69 72 72 72 76 82 89 93 93 93 91 89 88 87 87 86 81 75 70 68 68 67 63 57 54 48 40 35 30 24 23 33 43 46 46 47 50
156 158 160 160 162 170 182 184 179 175 173 173 170 168 169 166 164 167 161 156 155 158 162 162 156 150 144 134 130 130 126 122 122 124 124 123 118 106 96 86 73 65 57 53 57 61 62 64 68 72 73 72 74 77 81 85 84 81 80 77 75 73 71 71 74 73 67 66 67 69 64 55 47 38 33 35 32 31 36 42 46 44 44 48 51
155 160 162 162 164 167 180 189 186 183 180 181 177 173 177 174 171 173 168 163 160 161 164 166 164 157 153 144 139 140 135 132 131 131 130 134 130 115 105 92 79 69 59 57 62 64 64 66 70 72 74 74 75 76 77 78 76 72 69 66 64 63 60 53 59 64 60 60 65 72 66 52 44 37 34 41 41 41 46 46 46 44 44 48 47
158 167 170 169 168 165 173 185 188 185 183 186 182 175 179 181 177 176 173 170 164 161 164 167 168 162 160 152 146 146 141 140 139 138 137 140 138 128 120 102 89 76 62 62 68 68 67 68 71 74 75 76 77 78 78 77 75 72 69 66 64 61 57 51 53 57 53 58 70 76 66 50 43 42 39 42 45 45 47 47 46 44 43 46 43
160 169 172 171 171 173 178 185 189 185 183 186 183 177 180 185 182 179 176 174 170 166 166 167 169 168 167 164 161 154 147 146 144 145 144 145 146 139 130 113 97 82 67 69 75 73 71 72 74 76 76 77 79 80 81 79 77 74 72 70 69 66 62 59 58 58 54 60 75 77 67 53 43 42 41 40 43 44 45 45 45 43 42 43 41
166 171 171 172 175 183 186 187 191 188 187 185 183 183 182 185 183 183 180 177 176 171 170 169 168 169 168 166 165 159 155 153 149 152 152 150 151 145 133 117 103 87 78 80 82 78 74 74 74 74 75 76 78 80 80 78 77 76 75 73 72 71 66 65 64 62 59 59 69 73 66 55 44 40 40 40 39 39 40 40 42 41 38 36 37
166 174 176 178 179 183 184 186 189 189 191 191 190 185 180 186 184 183 182 180 179 176 177 174 171 172 169 165 159 156 159 162 160 158 158 154 150 148 136 119 105 88 84 86 86 81 73 70 69 68 68 70 72 74 75 76 74 73 74 72 71 71 68 67 67 67 65 60 61 65 63 52 43 37 36 37 36 36 36 36 38 37 32 28 29
161 170 177 182 185 187 187 188 190 189 189 195 197 188 178 178 183 189 185 180 178 181 185 184 182 177 173 169 163 160 157 158 161 160 158 157 154 150 141 130 115 94 88 90 87 78 68 64 64 62 62 63 63 64 67 70 70 67 67 69 68 68 68 67 67 67 67 63 59 61 63 52 40 36 35 33 34 36 36 34 32 27 24 26 25
162 170 177 183 189 193 194 195 194 190 186 191 198 192 182 176 185 194 191 186 182 183 188 193 192 186 184 177 169 167 158 151 152 156 155 154 155 152 148 147 130 108 99 98 93 81 67 62 62 61 59 60 59 59 61 64 65 62 60 62 64 64 64 64 65 64 62 62 59 56 63 56 42 37 36 32 31 33 32 30 27 16 14 23 19
170 182 189 191 194 197 199 201 198 193 188 187 188 185 182 182 188 196 196 191 185 186 191 197 198 195 191 179 174 173 165 161 158 156 158 158 158 158 159 161 144 124 115 112 106 89 74 68 65 63 60 60 62 59 60 64 64 62 59 56 59 61 60 59 59 59 57 56 57 52 58 58 47 40 38 35 33 32 30 28 27 18 12 19 16
179 194 205 205 205 204 203 203 201 195 190 186 182 181 184 181 181 188 190 188 187 189 192 198 200 199 193 183 180 177 175 181 177 165 161 163 158 158 163 164 152 135 127 125 117 94 80 81 74 70 69 67 66 61 58 62 64 64 64 58 57 60 60 57 54 53 52 52 55 52 53 56 50 43 38 36 34 34 33 30 29 24 17 20 22
191 207 220 220 217 215 212 207 203 198 191 183 177 182 187 180 175 179 180 181 185 186 188 194 196 200 197 191 189 183 184 193 189 172 162 170 165 160 161 155 143 137 135 137 133 114 104 100 86 84 85 78 70 64 59 59 61 63 66 62 58 59 59 57 53 50 49 48 50 51 51 52 49 45 39 35 33 33 32 30 29 27 24 22 24
197 211 230 229 214 211 212 208 205 200 190 183 179 182 184 177 178 189 187 181 182 185 186 185 193 200 198 197 200 198 194 189 184 174 173 183 176 166 160 151 140 135 135 149 156 151 139 120 105 101 93 83 72 66 62 59 58 60 64 64 59 58 57 56 55 51 47 46 47 47 45 45 45 43 40 38 35 33 32 30 28 27 26 25 26
200 210 229 219 194 193 200 202 202 197 188 183 181 180 180 176 182 192 186 173 172 175 176 183 194 189 190 208 207 201 198 187 180 178 181 179 173 169 162 161 158 145 141 170 182 165 147 131 121 114 96 85 75 68 67 64 60 59 64 66 62 59 59 58 57 55 50 47 46 45 42 43 44 45 45 41 39 37 35 33 31 30 29 28 28
206 209 213 194 180 180 186 192 193 189 184 183 181 175 177 178 180 185 176 169 170 166 163 172 175 165 177 209 202 192 192 188 184 182 181 175 173 176 170 171 176 166 160 186 190 163 150 140 132 121 103 95 84 76 72 68 66 65 66 69 66 62 63 62 60 59 55 50 48 46 43 42 43 46 48 46 42 38 36 35 33 32 32 30 30
202 196 186 176 167 170 176 175 178 178 178 180 175 167 172 176 175 176 171 168 171 166 160 164 169 172 189 194 187 184 179 179 180 176 177 175 176 183 181 178 182 183 181 182 172 161 156 147 138 127 114 105 95 87 79 74 74 73 71 72 68 66 66 64 62 62 60 57 52 48 44 43 43 43 45 47 44 39 36 35 34 32 31 31 30
185 176 171 165 154 160 164 154 158 167 172 174 168 161 167 172 168 169 168 165 166 165 170 187 199 200 190 180 179 178 171 169 169 167 170 170 171 174 177 182 184 184 180 166 156 156 154 145 138 130 123 117 108 98 88 83 83 82 79 76 72 71 69 67 67 67 66 62 56 51 47 43 43 42 41 43 43 40 37 36 37 35 32 31 30
175 170 166 158 154 156 153 147 151 162 169 168 164 160 162 164 161 164 166 167 173 175 183 192 186 178 172 171 171 170 168 166 163 164 166 166 167 168 169 174 170 164 161 157 152 152 147 141 138 129 126 127 119 107 98 95 94 92 88 83 81 78 75 72 72 73 70 64 56 51 48 46 44 42 40 39 39 38 37 37 40 39 35 33 32
171 167 163 158 158 158 154 151 153 161 166 164 163 162 162 161 158 157 155 155 162 167 168 167 167 166 163 162 163 164 167 166 164 167 168 167 167 166 162 156 151 149 150 151 149 148 144 138 136 130 130 132 122 113 108 103 101 100 96 94 92 87 80 77 75 74 70 63 56 53 52 51 49 47 45 44 42 41 39 38 41 43 39 35 33
168 166 165 162 160 160 160 158 157 162 163 162 165 165 164 162 160 159 153 150 153 157 159 162 172 170 161 159 162 165 165 164 165 167 167 164 160 155 148 141 140 142 143 146 146 144 143 138 133 132 134 133 122 117 115 106 102 103 102 99 94 89 82 79 77 73 69 64 60 61 59 58 57 56 54 51 48 47 46 44 43 46 45 39 36
170 168 167 164 163 162 163 163 163 165 162 161 164 164 161 160 162 162 158 159 162 165 165 167 172 166 162 161 162 163 162 161 162 165 162 156 151 145 138 135 136 139 138 141 143 140 143 140 135 138 135 129 121 118 116 107 105 106 106 101 94 88 82 80 78 74 72 71 70 68 65 63 62 61 57 54 52 49 48 49 47 48 51 46 40
173 170 168 166 166 164 166 166 167 169 165 165 169 168 165 163 163 163 165 167 164 165 163 165 167 165 166 162 159 161 159 156 158 163 159 152 148 141 135 136 137 140 137 137 138 136 144 138 130 136 133 125 119 117 114 110 111 110 107 102 95 89 85 83 81 79 78 77 75 70 65 62 60 59 57 54 52 49 47 47 48 47 51 52 45
178 175 171 168 169 168 169 169 170 170 165 164 169 169 165 166 164 162 170 173 166 166 165 166 167 166 169 164 162 164 161 159 159 162 160 153 148 139 135 137 141 143 140 137 136 135 139 131 122 126 130 128 124 119 117 115 115 114 108 102 96 90 88 87 84 82 79 75 71 68 64 60 57 55 54 52 49 48 46 45 46 45 46 50 48
180 179 176 172 172 172 172 173 174 172 166 162 162 163 164 166 163 160 164 167 166 168 166 166 165 165 166 162 163 163 160 161 160 161 159 152 145 138 134 137 140 141 139 135 131 129 129 127 127 130 132 130 126 122 121 120 117 113 108 103 100 96 92 88 83 78 73 68 64 62 60 57 55 52 50 50 48 44 43 42 42 42 42 42 42
180 182 181 175 176 175 173 175 174 172 171 166 161 163 164 162 157 152 154 158 161 163 162 163 161 162 163 158 159 158 156 158 159 158 155 149 144 139 137 138 140 140 136 131 126 126 128 130 135 136 133 128 123 124 124 122 117 113 110 107 104 101 95 86 79 74 68 64 60 56 54 52 50 49 48 46 45 43 42 40 40 40 40 38 36
182 184 184 179 179 176 174 173 171 171 172 166 161 162 158 154 152 150 150 153 158 160 158 158 157 159 160 158 158 157 156 157 158 157 153 148 143 141 140 139 141 141 134 127 120 119 120 120 122 125 127 125 122 125 126 123 116 110 109 108 105 101 94 85 79 75 70 64 59 53 48 47 47 45 44 43 43 43 41 40 39 37 36 34 32
182 184 185 181 180 177 175 174 169 169 170 165 161 161 157 152 150 150 151 151 155 156 152 152 152 153 155 156 156 155 156 156 156 155 151 146 141 140 141 138 139 137 128 122 118 115 111 112 118 120 125 125 122 124 126 125 117 108 105 102 99 97 91 85 80 74 70 64 59 53 45 42 43 41 40 38 39 42 41 40 38 34 31 29 27
180 185 188 185 183 178 177 177 170 165 166 164 161 161 160 158 156 155 155 152 151 151 149 148 149 149 151 152 152 152 153 152 152 152 149 146 143 142 141 139 138 133 125 120 118 115 109 109 116 119 122 124 123 125 129 127 120 118 114 103 95 93 89 85 80 70 64 59 54 51 41 36 36 34 34 33 34 38 39 37 37 33 26 23 22
181 185 189 188 185 179 177 176 170 165 164 164 165 166 165 165 165 162 157 153 150 149 147 146 148 148 149 150 149 150 151 150 151 152 149 147 146 144 143 141 139 133 127 121 117 113 108 106 110 115 118 119 119 125 135 136 130 128 122 111 109 100 86 76 75 70 59 49 48 46 36 31 31 27 27 28 28 31 34 33 36 34 25 18 14
183 182 183 183 181 179 179 176 173 172 168 169 174 174 168 165 163 159 157 154 150 148 146 146 150 150 148 149 150 151 153 152 152 153 150 147 145 143 142 140 136 132 128 122 116 112 109 106 106 112 116 114 106 102 115 133 137 136 123 110 119 107 97 23 49 83 64 46 43 40 30 26 26 22 22 25 23 26 28 26 29 32 26 19 10
185 182 178 179 176 175 177 175 177 177 173 175 177 172 165 160 155 150 150 150 147 148 146 146 150 151 150 150 150 152 154 152 151 150 147 143 142 140 139 136 132 130 126 120 116 112 110 108 106 109 111 110 104 96 96 108 118 118 107 110 84 80 203 296 10 102 61 42 36 30 26 23 21 19 20 20 20 23 22 19 20 22 21 15 8
188 183 179 179 176 174 174 175 180 180 179 181 176 170 167 163 157 152 152 150 147 150 152 151 152 152 150 149 148 149 149 147 145 143 141 138 138 138 136 134 130 128 124 118 115 112 109 107 106 105 105 110 110 101 94 92 90 82 80 88 82 99 149 280 82 33 322 23 26 18 20 18 17 17 19 17 18 22 16 11 13 12 9 4 360
187 184 181 181 179 177 176 179 186 186 184 182 175 170 168 166 167 167 165 160 156 154 155 156 154 151 149 147 146 144 143 141 139 137 135 134 135 136 135 133 129 126 123 119 115 112 109 106 105 103 102 105 108 104 100 97 91 81 76 78 79 89 89 78 115 61 332 285 334 359 8 9 12 12 14 15 15 18 11 7 11 7 3 358 353
187 185 184 183 182 180 181 184 189 189 186 182 177 174 174 173 175 174 169 168 165 158 153 154 153 150 147 145 143 142 141 139 137 135 135 136 136 136 135 132 128 125 122 119 115 113 111 109 107 105 103 101 101 104 107 104 99 95 91 86 82 84 79 75 87 87 124 243 312 342 352 355 6 10 10 11 11 13 5 5 13 6 0 353 345
188 187 187 186 185 183 184 186 187 189 189 186 182 182 185 183 178 173 167 166 165 159 153 152 151 149 147 145 144 142 141 139 138 138 138 139 139 137 136 132 128 126 123 119 117 116 114 113 111 109 107 104 102 105 107 107 107 110 109 104 101 97 95 86 69 65 106 150 274 298 328 343 357 6 11 10 10 11 1 6 12 358 346 336 332
189 189 189 188 188 186 185 185 186 188 189 189 187 185 187 184 178 175 170 164 160 157 153 150 150 149 147 145 145 143 142 142 141 142 142 142 140 138 136 133 129 127 125 122 122 121 118 116 114 111 109 108 108 107 108 111 113 115 115 120 122 119 124 120 68 54 80 129 227 282 315 337 336 340 0 8 10 12 3 9 4 344 330 325 331
187 188 189 190 190 188 187 186 187 189 189 189 190 187 185 184 181 179 175 167 161 157 154 151 151 150 148 146 146 145 145 145 145 145 145 143 142 140 137 134 131 129 127 126 125 124 122 119 116 113 110 109 109 108 109 113 116 117 119 124 129 134 144 150 143 120 177 188 233 285 306 325 314 311 339 354 3 11 8 12 356 336 325 327 339